| time (UTC) | temp C | wind direction | speed KPH | gust KPH | rain 1hr cm | rain 24hr cm | rain mn cm | humidity % | barometer mb |
| 20260906064528 | 25 | 40 | 14.5 | 27.4 | 0.00 | 0.00 | 0.00 | 55 | 1019.6 |
| 20260906063017 | 25 | 78 | 9.7 | 22.5 | 0.00 | 0.00 | 0.00 | 57 | 1019.6 |
| 20260906061513 | 24 | 96 | 8.0 | 25.7 | 0.00 | 0.00 | 0.00 | 60 | 1019.4 |
| 20260906060015 | 24 | 43 | 9.7 | 22.5 | 0.00 | 0.00 | 0.00 | 61 | 1019.2 |
| 20260906054507 | 23 | 51 | 4.8 | 17.7 | 0.00 | 0.00 | 0.00 | 64 | 1019.1 |
| 20260906053006 | 23 | 38 | 6.4 | 16.1 | 0.00 | 0.00 | 0.00 | 66 | 1019.1 |
| 20260906051601 | 22 | 35 | 8.0 | 14.5 | 0.00 | 0.00 | 0.00 | 68 | 1018.9 |
| 20260906050056 | 22 | 60 | 9.7 | 17.7 | 0.00 | 0.00 | 0.00 | 69 | 1018.7 |
| 20260906044553 | 22 | 31 | 8.0 | 16.1 | 0.00 | 0.00 | 0.00 | 71 | 1018.5 |
| 20260906043050 | 22 | 45 | 6.4 | 14.5 | 0.00 | 0.00 | 0.00 | 73 | 1018.4 |
| 20260906041550 | 22 | 49 | 4.8 | 8.0 | 0.00 | 0.00 | 0.00 | 73 | 1018.4 |
| 20260906040051 | 21 | 29 | 3.2 | 8.0 | 0.00 | 0.00 | 0.00 | 75 | 1018.3 |
| 20260906034547 | 22 | 9 | 4.8 | 9.7 | 0.00 | 0.00 | 0.00 | 75 | 1018.2 |
| 20260906033045 | 22 | 11 | 6.4 | 9.7 | 0.00 | 0.00 | 0.00 | 74 | 1018.0 |
| 20260906031544 | 22 | 19 | 4.8 | 8.0 | 0.00 | 0.00 | 0.00 | 74 | 1018.0 |
| 20260906030043 | 22 | 19 | 1.6 | 8.0 | 0.00 | 0.00 | 0.00 | 74 | 1017.8 |
| 20260906024539 | 22 | 11 | 4.8 | 8.0 | 0.00 | 0.00 | 0.00 | 71 | 1017.7 |
| 20260906023045 | 22 | 46 | 3.2 | 8.0 | 0.00 | 0.00 | 0.00 | 72 | 1017.7 |
| 20260906021538 | 22 | 21 | 4.8 | 8.0 | 0.00 | 0.00 | 0.00 | 72 | 1017.6 |
| 20260906020037 | 23 | 17 | 4.8 | 11.3 | 0.00 | 0.00 | 0.00 | 71 | 1017.6 |
| 20260906014539 | 23 | 31 | 6.4 | 11.3 | 0.00 | 0.00 | 0.00 | 70 | 1017.6 |
| 20260906013035 | 23 | 26 | 6.4 | 12.9 | 0.00 | 0.00 | 0.00 | 70 | 1017.6 |
| 20260906011534 | 22 | 29 | 3.2 | 9.7 | 0.00 | 0.00 | 0.00 | 72 | 1017.4 |
| 20260906010033 | 22 | 28 | 4.8 | 9.7 | 0.00 | 0.00 | 0.00 | 74 | 1017.4 |
| 20260906004532 | 22 | 17 | 3.2 | 6.4 | 0.00 | 0.00 | 0.00 | 74 | 1017.4 |
| 20260906003030 | 22 | 21 | 3.2 | 4.8 | 0.00 | 0.00 | 0.00 | 73 | 1017.4 |
| 20260906001529 | 22 | 23 | 3.2 | 4.8 | 0.00 | 0.00 | 0.00 | 71 | 1017.4 |
| 20260906000027 | 22 | 23 | 1.6 | 6.4 | 0.00 | 0.00 | 0.00 | 69 | 1017.3 |
| 20260905234526 | 22 | 24 | 3.2 | 8.0 | 0.00 | 0.00 | 0.00 | 68 | 1017.3 |
| 20260905233024 | 23 | 31 | 1.6 | 4.8 | 0.00 | 0.00 | 0.00 | 66 | 1017.3 |
| 20260905231520 | 23 | 31 | 3.2 | 4.8 | 0.00 | 0.00 | 0.00 | 63 | 1017.2 |
| 20260905230018 | 24 | 31 | 3.2 | 8.0 | 0.00 | 0.00 | 0.00 | 61 | 1017.1 |
| 20260905224520 | 24 | 26 | 4.8 | 8.0 | 0.00 | 0.00 | 0.00 | 61 | 1017.0 |
| 20260905223013 | 24 | 22 | 3.2 | 8.0 | 0.00 | 0.00 | 0.00 | 60 | 1016.8 |
| 20260905221528 | 24 | 45 | 6.4 | 9.7 | 0.00 | 0.00 | 0.00 | 60 | 1016.6 |
| 20260905220009 | 25 | 40 | 4.8 | 9.7 | 0.00 | 0.00 | 0.00 | 60 | 1016.6 |
| 20260905214509 | 25 | 53 | 4.8 | 9.7 | 0.00 | 0.00 | 0.00 | 60 | 1016.4 |
| 20260905213007 | 25 | 38 | 3.2 | 9.7 | 0.00 | 0.00 | 0.00 | 60 | 1016.4 |
| 20260905211507 | 25 | 53 | 6.4 | 11.3 | 0.00 | 0.00 | 0.00 | 60 | 1016.4 |
| 20260905210007 | 25 | 50 | 4.8 | 16.1 | 0.00 | 0.00 | 0.00 | 62 | 1016.4 |
| 20260905204506 | 25 | 57 | 6.4 | 12.9 | 0.00 | 0.00 | 0.00 | 64 | 1016.5 |
| 20260905203004 | 25 | 71 | 6.4 | 14.5 | 0.00 | 0.00 | 0.00 | 65 | 1016.4 |
| 20260905201503 | 25 | 65 | 6.4 | 16.1 | 0.00 | 0.00 | 0.00 | 71 | 1016.3 |
| 20260905200002 | 25 | 18 | 4.8 | 6.4 | 0.00 | 0.00 | 0.00 | 80 | 1016.1 |
| 20260905194600 | 25 | 38 | 1.6 | 4.8 | 0.00 | 0.00 | 0.00 | 81 | 1015.8 |
| 20260905193058 | 25 | 39 | 4.8 | 6.4 | 0.00 | 0.00 | 0.00 | 80 | 1015.8 |
| 20260905191557 | 26 | 76 | 1.6 | 4.8 | 0.00 | 0.00 | 0.00 | 81 | 1015.6 |
| 20260905190112 | 26 | 77 | 1.6 | 6.4 | 0.00 | 0.00 | 0.00 | 81 | 1015.4 |
| 20260905184606 | 26 | 121 | 1.6 | 4.8 | 0.00 | 0.00 | 0.00 | 79 | 1015.3 |
| 20260905183051 | 26 | 121 | 3.2 | 9.7 | 0.00 | 0.00 | 0.00 | 77 | 1015.1 |
| 20260905181550 | 27 | 163 | 3.2 | 8.0 | 0.00 | 0.00 | 0.00 | 75 | 1014.7 |
| 20260905180046 | 27 | 165 | 0.0 | 4.8 | 0.00 | 0.00 | 0.00 | 72 | 1014.6 |
| 20260905174554 | 28 | 165 | 1.6 | 8.0 | 0.00 | 0.00 | 0.00 | 70 | 1014.2 |
| 20260905173046 | 29 | 171 | 0.0 | 4.8 | 0.00 | 0.00 | 0.00 | 67 | 1014.1 |
| 20260905171544 | 30 | 163 | 3.2 | 9.7 | 0.00 | 0.00 | 0.00 | 64 | 1013.8 |
| 20260905170044 | 31 | 194 | 0.0 | 1.6 | 0.00 | 0.00 | 0.00 | 57 | 1013.7 |
| 20260905164543 | 31 | 194 | 0.0 | 4.8 | 0.00 | 0.00 | 0.00 | 56 | 1013.5 |
| 20260905163042 | 31 | 194 | 1.6 | 6.4 | 0.00 | 0.00 | 0.00 | 51 | 1013.3 |
| 20260905161642 | 31 | 194 | 3.2 | 6.4 | 0.00 | 0.00 | 0.00 | 52 | 1013.2 |
| 20260905160039 | 32 | 191 | 4.8 | 8.0 | 0.00 | 0.00 | 0.00 | 49 | 1013.2 |
| 20260905154539 | 32 | 141 | 1.6 | 8.0 | 0.00 | 0.00 | 0.00 | 49 | 1013.2 |
| 20260905153039 | 32 | 170 | 4.8 | 12.9 | 0.00 | 0.00 | 0.00 | 48 | 1013.0 |
| 20260905151538 | 32 | 93 | 3.2 | 8.0 | 0.00 | 0.00 | 0.00 | 48 | 1013.1 |
| 20260905150037 | 32 | 132 | 3.2 | 8.0 | 0.00 | 0.00 | 0.00 | 48 | 1013.1 |
| 20260905144542 | 32 | 162 | 1.6 | 11.3 | 0.00 | 0.00 | 0.00 | 49 | 1013.1 |
| 20260905143037 | 33 | 113 | 4.8 | 11.3 | 0.00 | 0.00 | 0.00 | 46 | 1013.1 |
| 20260905141540 | 32 | 190 | 4.8 | 9.7 | 0.00 | 0.00 | 0.00 | 47 | 1013.1 |
| 20260905140029 | 32 | 209 | 4.8 | 9.7 | 0.00 | 0.00 | 0.00 | 47 | 1013.2 |
| 20260905134528 | 32 | 196 | 1.6 | 9.7 | 0.00 | 0.00 | 0.00 | 47 | 1013.3 |
| 20260905133026 | 32 | 201 | 4.8 | 9.7 | 0.00 | 0.00 | 0.00 | 49 | 1013.3 |
| 20260905131541 | 32 | 146 | 6.4 | 17.7 | 0.00 | 0.00 | 0.00 | 49 | 1013.4 |
| 20260905130024 | 32 | 138 | 4.8 | 14.5 | 0.00 | 0.00 | 0.00 | 49 | 1013.5 |
| 20260905124536 | 32 | 161 | 3.2 | 14.5 | 0.00 | 0.00 | 0.00 | 48 | 1013.6 |
| 20260905123016 | 32 | 160 | 6.4 | 12.9 | 0.00 | 0.00 | 0.00 | 47 | 1013.7 |
| 20260905121522 | 31 | 133 | 3.2 | 12.9 | 0.00 | 0.00 | 0.00 | 47 | 1013.8 |
| 20260905120013 | 31 | 153 | 3.2 | 12.9 | 0.00 | 0.00 | 0.00 | 47 | 1014.0 |
| 20260905114531 | 31 | 94 | 3.2 | 14.5 | 0.00 | 0.00 | 0.00 | 45 | 1014.1 |
| 20260905113011 | 31 | 99 | 1.6 | 9.7 | 0.00 | 0.00 | 0.00 | 44 | 1014.0 |
| 20260905111510 | 31 | 175 | 6.4 | 12.9 | 0.00 | 0.00 | 0.00 | 48 | 1014.1 |
| 20260905110004 | 30 | 202 | 3.2 | 8.0 | 0.00 | 0.00 | 0.00 | 49 | 1014.1 |
| 20260905104502 | 30 | 19 | 1.6 | 6.4 | 0.00 | 0.00 | 0.00 | 46 | 1014.3 |
| 20260905103058 | 29 | 53 | 1.6 | 9.7 | 0.00 | 0.00 | 0.00 | 44 | 1014.3 |
| 20260905101618 | 28 | 123 | 3.2 | 11.3 | 0.00 | 0.00 | 0.00 | 51 | 1014.4 |
| 20260905100053 | 28 | 81 | 0.0 | 8.0 | 0.00 | 0.00 | 0.00 | 53 | 1014.4 |
| 20260905094553 | 28 | 36 | 1.6 | 6.4 | 0.00 | 0.00 | 0.00 | 52 | 1014.4 |
| 20260905093052 | 28 | 51 | 1.6 | 6.4 | 0.00 | 0.00 | 0.00 | 55 | 1014.4 |
| 20260905091549 | 28 | 121 | 0.0 | 6.4 | 0.00 | 0.00 | 0.00 | 56 | 1014.4 |
| 20260905090048 | 27 | 125 | 4.8 | 9.7 | 0.00 | 0.00 | 0.00 | 59 | 1014.2 |
| 20260905084603 | 27 | 33 | 3.2 | 9.7 | 0.00 | 0.00 | 0.00 | 60 | 1014.2 |
| 20260905083047 | 28 | 107 | 3.2 | 9.7 | 0.00 | 0.00 | 0.00 | 59 | 1014.1 |
| 20260905081545 | 28 | 94 | 3.2 | 8.0 | 0.00 | 0.00 | 0.00 | 60 | 1014.0 |
| 20260905080041 | 27 | 96 | 1.6 | 12.9 | 0.00 | 0.00 | 0.00 | 61 | 1013.9 |
| 20260905074538 | 26 | 128 | 4.8 | 12.9 | 0.00 | 0.00 | 0.00 | 64 | 1013.7 |
| 20260905073035 | 25 | 110 | 1.6 | 6.4 | 0.00 | 0.00 | 0.00 | 64 | 1013.6 |
| 20260905071529 | 24 | 15 | 3.2 | 8.0 | 0.00 | 0.00 | 0.00 | 72 | 1013.5 |
| 20260905070024 | 23 | 15 | 3.2 | 6.4 | 0.00 | 0.00 | 0.00 | 79 | 1013.6 |